Location: Ballingbuur
(53.0000°N, 5.7667°E)
Time: 06:21:11
(UTC+00:00)

ATLAS 5 CENTAUR R/B - Pass Details

Date: 29 November 2020
Orbit: 520 x 1138 km, 63.4° (Epoch: 22 January)

Event Time Altitude Azimuth Distance (km) Brightness Sun altitude
Rises 06:27:07 0° 203° (SSW) 2,674 4.9 -8.3°
Reaches altitude 10° 06:29:16 10° 196° (SSW) 1,825 4.1 -8.0°
Maximum altitude 06:33:06 42° 125° (SE) 850 3.0 -7.5°
Drops below altitude 10° 06:37:27 10° 55° (NE) 2,076 4.7 -6.9°
Sets 06:40:02 0° 49° (NE) 3,094 5.4 -6.6°
